Location: Étouvelles
(49.5207°N, 3.5808°E)
Time: 06:57:13
(UTC+00:00)

Cosmos 1140 Rocket - Pass Details

Date: 03 February 2023
Orbit: 744 x 766 km, 74.1° (Epoch: 24 March)

Event Time Altitude Azimuth Distance (km) Brightness Sun altitude
Rises 17:21:58 0° 201° (SSW) 3,198 7.3 -6.5°
Reaches altitude 10° 17:24:20 10° 201° (SSW) 2,274 6.5 -6.9°
Maximum altitude 17:29:30 89° 115° (ESE) 758 3.5 -7.7°
Drops below altitude 10° 17:34:40 10° 24° (NNE) 2,276 5.6 -8.5°
Sets 17:37:02 0° 24° (NNE) 3,202 6.3 -8.9°
